Погода в Гакугсе

Россия / Республика Карелия     61°34′24″N   36°26′27″E
темп.,
°C
ветер,
м/с
пор.,
м/с
влажн.,
%
обл.,
%
осадки,
мм/ч
давл.,
гПа
погр.,
м
13 апреля, вт
вт1300:00+7ююв5148995 0.0 1025432
03:00+6ююв51393100 0.0 1024421
06:00+6ююв41097100 1.7 1022377
09:00+6ю31098100 3.8 1021356
12:00+7ю4997100 0.8 1021320
15:00+9ю479083 0.8 1021441
18:00+8ю379475 0.0 1020350
21:00+6ю2799100 0.0 1020145
14 апреля, ср
ср1400:00+6ююв2599100 0.0 101983
03:00+6ююв2597100 0.0 1018102
06:00+7ю1399100 2.4 101562
09:00+6зюз2499100 4.3 1015150
12:00+5ссз259799 0.4 1016256
15:00+3сз3795100 0.8 1018401
18:00+4зсз1392100 0.2 1020234
21:00+2зюз1195100 0.2 102120
15 апреля, чт
чт1500:00+2сз1294100 0.0 102265
03:00+2ссв278698 0.0 1024232
06:000ссв268963 0.0 1025170
09:00+3ссв3575100 0.0 1027514
12:00+6ссв345530 0.0 10281065
15:00+7ссв34495 0.0 10281331
18:00+6ссв35574 0.0 1028671
21:00+2ссв22740 0.0 102928
16 апреля, пт
пт1600:00+1св22785 0.0 103026
03:000всв11795 0.0 103011
06:000св11765 0.0 103010
09:00+5с12585 0.0 1031388
12:00+7сз23505 0.0 10311077
15:00+8сз345426 0.0 10321260
18:00+8ссв35605 0.0 1032937
21:00+4ссв310758 0.0 1034358
17 апреля, сб
сб1700:00+1св398017 0.0 1036286
03:00−1св28845 0.0 1037215
06:00−1св26815 0.0 1038207
09:00+4св23575 0.0 1039511
12:00+7ссз23445 0.0 1038925
15:00+8сз33485 0.0 1037930
18:00+6зсз346248 0.0 1037309
21:00+2зсз117659 0.0 103616